CZ-3C DEB, 40863

Orbit data source: Space-Track

CZ-3C DEB, 40863 is space debris in HEO originally from a launch on Fri, 24 Feb 2012 UTC launched from the Xichang Space Center, China (XSC). Debris objects in space refer to the collection of defunct objects orbiting the Earth. Examples of debris include non-operational satellites, rocket bodies, and fragments generated from explosions, collisions, or faulty payload assembly.

Loading next visibility...
Identifier
40863, 2012-008AD
Orbit
HEO
Country
Flag of CNCN / PRC
Related business
Manufacturer
CALT
Mission
Spacecraft
Bus & Motor
Unknown
Mass
Unknown
Launch date (UTC)
2012-02-24 (14 years ago)
Launch vehicle
Unknown
Launch site
Xichang Space Center, China (XSC)
Object type
Payload
Rocket body
Debris
Shape & HBR
Unknown shape, 0.2 m
Radar Cross Section
Medium (>0.1 m² and <1 m²)

Expand to show TLE details & history
Last TLE update: 1 day ago

TLE from 1 day ago
0 CZ-3C DEB
1 40863U 12008AD  26119.43763917 -.00000133  00000-0  00000-0 0  9999
2 40863  20.5105 205.8167 7056940 218.0471  61.0225  2.20869185 91163
Epoch: 2026-04-29T10:30Z
TLE epoch observation values (Epoch: 2026-04-29T10:30:12.024Z)
Latitude
0.00002°
Longitude
-169.01473°
Altitude
21,843.61 km
Speed
3.499 km/s
True Right ascension
13h 43m 44s
True Declination
0° 00' 00"
Sunlit
Object was in daylight at epoch
Visualization orbit readout
Latitude
Unknown
Longitude
Unknown
Altitude
Unknown
Speed
Unknown
Apparent Right ascension
Unknown
Apparent Declination
Unknown
Sunlit
N/A
Visualization observer readout
Local Sidereal Time
20:12:33
Azimuth
Unknown
Elevation
Unknown
Doppler factor
Unknown
Orbital elements
Apogee altitude
36,111.583 km
Perigee altitude
953.178 km
Semi-major axis
24,910.518 km
Eccentricity
0.70569
Inclination
20.5105°
RAAN
205.8167°
Arg. of periapsis
218.0471°
True anomaly
142.03758°
Mean anomaly
61.0225°
Eccentric anomaly
100.74664°
Mean motion
0.55204 °/min
Orbital period
652.13 mins
BSTAR
0
Loading maneuver chart data...
Computing Atmospheric mass density...
Loading historical data...
Loading historical data...
Loading historical data...
Loading historical data...
Loading historical data...
Loading historical data...
Loading historical data...

Documentation

Showing up to 5 results
|